Simultaneous Nadir Overpasses (SNOs) Predictions

Prediction of SNOs between NOAA-20 and METOP-C Satellite Orbit:

Table of predicted SNOs for the next 14.0 days since TLE Epoch: 9/27/2021
Index Date (NOAA-20) Time (NOAA-20) Lat,Lon (NOAA-20) SZA (NOAA-20 ) Date (METOP-C) Time (METOP-C) Lat,Lon (METOP-C) SZA (METOP-C ) Distance(km) Time Diff (sec)
1 10/10/2021 03:48:41 73.33, 113.28 80.05 10/10/2021 03:49:49 73.27, 115.52 79.92 72.03 68
2 10/10/2021 04:39:24 -73.27, -79.27 100.01 10/10/2021 04:40:33 -73.21, -77.28 100.13 64.03 69
3 10/10/2021 05:30:05 73.04, 88.55 79.76 10/10/2021 05:31:16 72.99, 89.58 79.68 33.85 71
4 10/10/2021 06:20:48 -72.98,-104.00 100.30 10/10/2021 06:22:00 -72.93,-103.22 100.37 26.05 72
5 10/10/2021 07:11:29 72.74, 63.80 79.47 10/10/2021 07:12:42 72.76, 63.76 79.49 2.78 73
6 10/10/2021 08:02:14 -72.78,-128.97 100.48 10/10/2021 08:03:25 -72.76,-128.92 100.51 2.92 71
7 10/10/2021 08:52:59 72.75, 38.42 79.51 10/10/2021 08:54:04 72.74, 38.37 79.49 1.75 65
8 10/10/2021 09:43:43 -72.74,-154.25 100.50 10/10/2021 09:44:47 -72.73,-154.31 100.50 2.19 64
9 10/10/2021 10:34:29 72.75, 13.03 79.54 10/10/2021 10:35:25 72.76, 13.09 79.54 2.28 56
10 10/10/2021 11:25:13 -72.74,-179.64 100.46 10/10/2021 11:26:08 -72.76,-179.60 100.45 2.18 55
11 10/10/2021 12:15:59 72.76, -12.36 79.57 10/10/2021 12:16:47 72.74, -12.30 79.55 3.00 48
12 10/10/2021 13:06:43 -72.75, 154.98 100.43 10/10/2021 13:07:30 -72.73, 155.01 100.45 2.01 47
13 10/10/2021 13:57:28 72.72, -37.64 79.55 10/10/2021 13:58:09 72.71, -37.69 79.55 1.66 41
14 10/10/2021 14:48:12 -72.71, 129.69 100.45 10/10/2021 14:48:52 -72.71, 129.62 100.45 2.42 40
15 10/10/2021 15:38:58 72.72, -63.03 79.59 10/10/2021 15:39:30 72.74, -62.98 79.60 2.66 32
16 10/10/2021 16:29:42 -72.71, 104.30 100.42 10/10/2021 16:30:13 -72.74, 104.34 100.39 2.92 31
17 10/10/2021 17:20:27 72.73, -88.42 79.62 10/10/2021 17:20:51 72.72, -88.37 79.60 2.22 24
18 10/10/2021 18:11:11 -72.72, 78.92 100.38 10/10/2021 18:11:34 -72.71, 78.95 100.39 1.18 23
19 10/10/2021 19:01:56 72.68,-113.70 79.60 10/10/2021 19:02:13 72.69,-113.76 79.61 2.00 17
20 10/10/2021 19:52:40 -72.67, 53.63 100.40 10/10/2021 19:52:56 -72.69, 53.56 100.39 2.96 16
21 10/10/2021 20:43:26 72.69,-139.09 79.63 10/10/2021 20:43:34 72.72,-139.05 79.66 3.25 8
22 10/10/2021 21:34:10 -72.68, 28.25 100.37 10/10/2021 21:34:18 -72.66, 28.17 100.38 3.28 8
23 10/10/2021 22:24:56 72.70,-164.48 79.67 10/10/2021 22:24:56 72.69,-164.44 79.66 1.56 0
24 10/10/2021 23:15:40 -72.69, 2.86 100.33 10/10/2021 23:15:39 -72.69, 2.88 100.33 0.79 1
25 10/11/2021 00:06:25 72.65, 170.24 79.65 10/11/2021 00:06:18 72.67, 170.17 79.66 2.61 7
26 10/11/2021 00:57:10 -72.69, -22.53 100.30 10/11/2021 00:57:01 -72.67, -22.51 100.33 3.29 9
27 10/11/2021 01:47:55 72.66, 144.85 79.68 10/11/2021 01:47:40 72.64, 144.78 79.67 2.90 15
28 10/11/2021 02:38:39 -72.65, -47.81 100.32 10/11/2021 02:38:23 -72.64, -47.90 100.33 2.99 16
29 10/11/2021 03:29:25 72.67, 119.46 79.71 10/11/2021 03:29:01 72.67, 119.50 79.72 1.25 24



Historial Predications of SNOs between NOAA-20 and METOP-C
